OE3EMC-13 Weather Reports


time (UTC)temp
C
wind
direction
speed
KPH
gust
KPH
rain 1hr
cm
rain 24hr
cm
rain mn
cm
humidity
%
barometer
mb
20260505110313 27 157 6.4 3.2 0.00 0.00 0.00 29 1100.0
20260505101312 26 135 3.2 11.3 0.00 0.00 0.00 34 1100.0
20260505100313 26 135 3.2 11.3 0.00 0.00 0.00 34 1100.0
20260505095311 25 90 4.8 8.0 0.00 0.00 0.00 32 1100.0
20260505094312 25 90 4.8 8.0 0.00 0.00 0.00 32 1100.0
20260505093311 24 202 3.2 9.7 0.00 0.00 0.00 35 1100.0
20260505092311 24 202 3.2 9.7 0.00 0.00 0.00 35 1100.0
20260505091311 23 135 4.8 11.3 0.00 0.00 0.00 37 1100.0
20260505090311 23 135 4.8 11.3 0.00 0.00 0.00 37 1100.0
20260505085310 22 202 3.2 9.7 0.00 0.00 0.00 36 1100.0
20260505084311 22 202 3.2 9.7 0.00 0.00 0.00 36 1100.0
20260505083310 21 202 3.2 6.4 0.00 0.00 0.00 40 1100.0
20260505082310 21 202 3.2 6.4 0.00 0.00 0.00 40 1100.0
20260505081311 19 360 3.2 4.8 0.00 0.00 0.00 46 1100.0
20260505080311 19 360 3.2 4.8 0.00 0.00 0.00 46 1100.0
20260505075310 18 360 1.6 3.2 0.00 0.00 0.00 51 1100.0
20260505074309 18 360 1.6 3.2 0.00 0.00 0.00 51 1100.0
20260505073309 17 315 3.2 9.7 0.00 0.00 0.00 53 1100.0
20260505072309 17 315 3.2 9.7 0.00 0.00 0.00 53 1100.0
20260505071310 17 90 3.2 6.4 0.00 0.00 0.00 56 1100.0
20260505070314 17 90 3.2 6.4 0.00 0.00 0.00 56 1100.0
20260505065315 16 67 3.2 4.8 0.00 0.00 0.00 60 1100.0
20260505064315 16 67 3.2 4.8 0.00 0.00 0.00 60 1100.0
20260505063315 16 360 1.6 3.2 0.00 0.00 0.00 60 1100.0
20260505062313 16 360 1.6 3.2 0.00 0.00 0.00 60 1100.0
20260505061314 15 337 3.2 6.4 0.00 0.00 0.00 64 1100.0
20260505060314 15 337 3.2 6.4 0.00 0.00 0.00 64 1100.0
20260505055313 12 360 0.0 0.0 0.00 0.00 0.00 75 1100.0
20260505054314 12 360 0.0 0.0 0.00 0.00 0.00 75 1100.0
20260505053313 10 90 0.0 0.0 0.00 0.00 0.00 83 1100.0
20260505052312 10 90 0.0 0.0 0.00 0.00 0.00 83 1100.0
20260505051312 8 337 0.0 0.0 0.00 0.00 0.00 84 1100.0
20260505050312 8 337 0.0 0.0 0.00 0.00 0.00 84 1100.0
20260505041311 7 67 0.0 1.6 0.00 0.00 0.00 81 1100.0
20260505040311 7 67 0.0 1.6 0.00 0.00 0.00 81 1100.0
20260505035312 7 22 0.0 0.0 0.00 0.00 0.00 80 1100.0
20260505034312 7 22 0.0 0.0 0.00 0.00 0.00 80 1100.0
20260505033311 7 45 0.0 0.0 0.00 0.00 0.00 79 1100.0
20260505032312 7 45 0.0 0.0 0.00 0.00 0.00 79 1100.0
20260505031312 8 337 0.0 0.0 0.00 0.00 0.00 79 1100.0
20260505030311 8 337 0.0 0.0 0.00 0.00 0.00 79 1100.0
20260505025310 8 45 0.0 1.6 0.00 0.00 0.00 77 1100.0
20260505024310 8 45 0.0 1.6 0.00 0.00 0.00 77 1100.0
20260505023310 9 22 1.6 1.6 0.00 0.00 0.00 78 1100.0
20260505022310 9 22 1.6 1.6 0.00 0.00 0.00 78 1100.0
20260505021311 9 22 1.6 0.0 0.00 0.00 0.00 76 1100.0
20260505020309 9 22 1.6 0.0 0.00 0.00 0.00 76 1100.0
20260505015311 10 67 1.6 1.6 0.00 0.00 0.00 77 1100.0
20260505014311 10 67 1.6 1.6 0.00 0.00 0.00 77 1100.0
20260505013310 10 360 0.0 0.0 0.00 0.00 0.00 75 1100.0
20260505012314 10 360 0.0 0.0 0.00 0.00 0.00 75 1100.0
20260505011315 10 67 0.0 0.0 0.00 0.00 0.00 74 1100.0
20260505010314 10 67 0.0 0.0 0.00 0.00 0.00 74 1100.0
20260505005314 10 180 1.6 0.0 0.00 0.00 0.00 74 1100.0
20260505004313 10 180 1.6 0.0 0.00 0.00 0.00 74 1100.0
20260505003313 11 90 0.0 0.0 0.00 0.00 0.00 72 1100.0
20260505002315 11 90 0.0 0.0 0.00 0.00 0.00 72 1100.0
20260505001313 11 90 1.6 0.0 0.00 0.00 0.00 72 1100.0
20260505000313 11 90 1.6 0.0 0.00 0.00 0.00 72 1100.0
20260504235313 11 90 1.6 4.8 0.00 0.00 0.00 71 1100.0
20260504234313 11 90 1.6 4.8 0.00 0.00 0.00 71 1100.0
20260504233313 10 67 0.0 0.0 0.00 0.00 0.00 70 1100.0
20260504232314 10 67 0.0 0.0 0.00 0.00 0.00 70 1100.0
20260504231312 10 112 0.0 3.2 0.00 0.00 0.00 68 1100.0
20260504230312 10 112 0.0 3.2 0.00 0.00 0.00 68 1100.0
20260504225315 10 45 0.0 1.6 0.00 0.00 0.00 67 1100.0
20260504224312 10 45 0.0 1.6 0.00 0.00 0.00 67 1100.0
20260504223311 10 67 1.6 1.6 0.00 0.00 0.00 66 1100.0
20260504222312 10 67 1.6 1.6 0.00 0.00 0.00 66 1100.0
20260504221311 11 67 1.6 1.6 0.00 0.00 0.00 65 1100.0
20260504220311 11 67 1.6 1.6 0.00 0.00 0.00 65 1100.0
20260504215311 11 90 1.6 0.0 0.00 0.00 0.00 64 1100.0
20260504214312 11 90 1.6 0.0 0.00 0.00 0.00 64 1100.0
20260504213311 11 112 1.6 0.0 0.00 0.00 0.00 62 1100.0
20260504212311 11 112 1.6 0.0 0.00 0.00 0.00 62 1100.0
20260504211311 12 45 0.0 0.0 0.00 0.00 0.00 60 1100.0
20260504210311 12 45 0.0 0.0 0.00 0.00 0.00 60 1100.0
20260504205311 12 67 1.6 1.6 0.00 0.00 0.00 60 1100.0
20260504204310 12 67 1.6 1.6 0.00 0.00 0.00 60 1100.0
20260504203311 13 90 0.0 0.0 0.00 0.00 0.00 54 1100.0
20260504202311 13 90 0.0 0.0 0.00 0.00 0.00 54 1100.0
20260504201310 14 337 1.6 3.2 0.00 0.00 0.00 52 1100.0
20260504200309 14 337 1.6 3.2 0.00 0.00 0.00 52 1100.0
20260504195309 15 135 0.0 0.0 0.00 0.00 0.00 52 1100.0
20260504194311 15 135 0.0 0.0 0.00 0.00 0.00 52 1100.0
20260504193309 15 337 0.0 0.0 0.00 0.00 0.00 51 1100.0
20260504192314 15 337 0.0 0.0 0.00 0.00 0.00 51 1100.0
20260504191315 15 135 1.6 0.0 0.00 0.00 0.00 50 1100.0
20260504190313 15 135 1.6 0.0 0.00 0.00 0.00 50 1100.0
20260504185314 15 202 1.6 4.8 0.00 0.00 0.00 52 1100.0
20260504184314 15 202 1.6 4.8 0.00 0.00 0.00 52 1100.0
20260504183313 17 90 0.0 0.0 0.00 0.00 0.00 49 1100.0
20260504182313 17 90 0.0 0.0 0.00 0.00 0.00 49 1100.0
20260504181313 18 360 3.2 1.6 0.00 0.00 0.00 48 1100.0
20260504180313 18 360 3.2 1.6 0.00 0.00 0.00 48 1100.0
20260504175312 18 90 1.6 0.0 0.00 0.00 0.00 48 1100.0
20260504174313 18 90 1.6 0.0 0.00 0.00 0.00 48 1100.0
20260504173313 19 202 4.8 4.8 0.00 0.00 0.00 47 1100.0
20260504172313 19 202 4.8 4.8 0.00 0.00 0.00 47 1100.0
20260504171313 21 202 6.4 6.4 0.00 0.00 0.00 45 1100.0
20260504170313 21 202 6.4 6.4 0.00 0.00 0.00 45 1100.0
20260504160313 25 247 8.0 9.7 0.00 0.00 0.00 37 1100.0
20260504150312 23 225 3.2 4.8 0.00 0.00 0.00 38 1100.0
20260504141309 26 180 4.8 3.2 0.00 0.00 0.00 35 1100.0
20260504140310 26 180 4.8 3.2 0.00 0.00 0.00 35 1100.0
20260504130313 21 202 6.4 9.7 0.00 0.00 0.00 42 1100.0
20260504120314 24 202 6.4 6.4 0.00 0.00 0.00 36 1100.0